Weather History for KMVY - August, 2014

Change the Weather History Date:

Friday, August 15, 2014

  Actual Average (KFMH) Record (KFMH)
Temperature  
Mean Temperature 62 °F -  
Max Temperature 72 °F 75 °F - (-1)
Min Temperature 50 °F 61 °F - (-1)
Degree Days  
Heating Degree Days 4    
Growing Degree Days 12 (Base 50)    
Moisture  
Dew Point 55 °F    
Average Humidity 76    
Maximum Humidity 97    
Minimum Humidity 44    
Precipitation  
Precipitation 0.10 in - - ()
Sea Level Pressure  
Sea Level Pressure 29.89 in    
Wind  
Wind Speed 5 mph (WSW)    
Max Wind Speed 15 mph    
Max Gust Speed 23 mph    
Visibility 10 miles    
Events Rain    
Averages and records for this station are not official NWS values.
T = Trace of Precipitation, MM = Missing Value Source: NWS Daily Summary

Daily Weather History Graph

Daily Weather History Graph

Search for Another Location

Airport or City:

Trip Planner

Search our weather history database for the weather conditions in past years. The results will help you decide how hot, cold, wet, or windy it might be!

Date:

Astronomy

Aug. 15, 2014 Rise Set
Actual Time 5:51 AM EDT 7:41 PM EDT
Civil Twilight 5:21 AM EDT 8:11 PM EDT
Nautical Twilight 4:45 AM EDT 8:47 PM EDT
Astronomical Twilight 4:06 AM EDT 9:26 PM EDT
Moon 10:37 PM EDT (8/15) 11:35 AM EDT (8/15)
Length of Visible Light 14h 49m
Length of Day
13h 50m
Waning Gibbous, 69% of the Moon is Illuminated
Aug 15
Waning Gibbous
Aug 17
Last Quarter
Aug 25
New
Sep 2
First Quarter
Sep 8
Full

Hourly Weather History & Observations

Time (EDT) Temp. Dew Point Humidity Pressure Visibility Wind Dir Wind Speed Gust Speed Precip Events Conditions
12:53 AM 53.1 °F 52.0 °F 96% 29.90 in 10.0 mi Calm Calm - N/A   Clear
1:53 AM 51.1 °F 50.0 °F 96% 29.88 in 10.0 mi Calm Calm - N/A   Clear
2:53 AM 52.0 °F 51.1 °F 97% 29.87 in 10.0 mi Calm Calm - N/A   Partly Cloudy
3:53 AM 63.0 °F 60.1 °F 90% 29.86 in 6.0 mi South 5.8 mph - 0.10 in Rain Light Rain
4:53 AM 62.1 °F 59.0 °F 90% 29.85 in 10.0 mi SSW 4.6 mph - 0.00 in   Partly Cloudy
5:10 AM 63.0 °F 61.0 °F 93% 29.85 in 10.0 mi SSW 4.6 mph - N/A   Mostly Cloudy
5:53 AM 64.9 °F 64.0 °F 97% 29.86 in 10.0 mi SW 8.1 mph - N/A   Mostly Cloudy
6:53 AM 66.0 °F 64.0 °F 93% 29.86 in 10.0 mi SW 4.6 mph - N/A   Partly Cloudy
7:53 AM 68.0 °F 63.0 °F 84% 29.87 in 10.0 mi SW 6.9 mph - N/A   Clear
8:53 AM 70.0 °F 59.0 °F 68% 29.88 in 10.0 mi Variable 5.8 mph - N/A   Clear
10:53 AM 72.0 °F 55.0 °F 55% 29.89 in 10.0 mi West 8.1 mph - N/A   Clear
11:53 AM 71.1 °F 50.0 °F 47% 29.90 in 10.0 mi West 13.8 mph - N/A   Clear
12:53 PM 72.0 °F 50.0 °F 46% 29.90 in 10.0 mi West 13.8 mph 19.6 mph N/A   Clear
1:53 PM 72.0 °F 48.9 °F 44% 29.89 in 10.0 mi WSW 15.0 mph 21.9 mph N/A   Clear
2:53 PM 71.1 °F 52.0 °F 51% 29.89 in 10.0 mi West 13.8 mph 23.0 mph N/A   Clear
3:53 PM 70.0 °F 54.0 °F 57% 29.89 in 10.0 mi WSW 13.8 mph 23.0 mph N/A   Partly Cloudy
4:53 PM 70.0 °F 51.1 °F 51% 29.89 in 10.0 mi West 12.7 mph 21.9 mph N/A   Clear
5:53 PM 69.1 °F 55.0 °F 61% 29.89 in 10.0 mi West 10.4 mph - N/A   Clear
6:53 PM 66.0 °F 54.0 °F 65% 29.90 in 10.0 mi WSW 8.1 mph - N/A   Clear
7:53 PM 62.1 °F 55.0 °F 78% 29.92 in 10.0 mi WSW 4.6 mph - N/A   Clear
8:53 PM 57.9 °F 55.0 °F 90% 29.94 in 10.0 mi WSW 3.5 mph - N/A   Clear
9:53 PM 54.0 °F 52.0 °F 93% 29.95 in 10.0 mi WSW 3.5 mph - N/A   Clear
10:53 PM 53.1 °F 51.1 °F 93% 29.96 in 10.0 mi West 4.6 mph - N/A   Scattered Clouds
11:53 PM 50.0 °F 48.0 °F 93% 29.96 in 10.0 mi WSW 3.5 mph - N/A   Clear